www.pogodaiklimat.ru

Погода и климат >> Архив погоды >> Нигер >> Zinder


ПОГОДА в Zinder

  • Прогноз погоды в Zinder
  • Монитор погоды в Zinder
  • Климат города

АРХИВ ПОГОДЫ в Zinder

Время (UTC), дата Ветер
(напр.,м/с)
 
Видим.   Явления Облачность Т
(С)
Тd
(С)
f
(%)
Тe
(С)
Тes
(С)
Комфортность P
(гПа)
Po
(гПа)
Тmin
(С)
Tmax
(С)
R
(мм)
R24
(мм)
S
(см)
18 9.08 штиль 0 10 км 6/0
[Ci sp]
+27.0 +22.1 75 +35 +35 очень
душно
1011.4 961.1 +28.5 3
06 10.08 Ю 2 15 км 9/0
[Ac trans Ci sp]
+23.5 +22.5 94 +31 +31 очень
душно
1012.0 961.9 +23.2 3
09 10.08 ЮЗ 4 15 км 9/0
[Ac trans Ci sp]
+28.0 +21.5 68 +36 +42 очень
душно
1012.7 962.4
12 10.08 З 4 15 км 8/0 <50 м
[Ac trans Ci sp]
+31.5 +20.6 52 +38 +49 очень
душно
1011.5 961.4
15 10.08 З 4 15 км 6/1 1200 м
[Cu hum Ci sp]
+32.6 +19.9 47 +39 +43 очень
душно
1010.0 960.1
18 10.08 З 4 10 км 6/0
[Ci sp]
+30.2 +22.0 62 +39 +39 очень
душно
1009.2 959.1 +33.3
06 11.08 З 4 10 км 9/0
[Ac As Ci sp]
+25.6 +22.8 85 +34 +34 очень
душно
1009.4 959.5 +25.2
09 11.08 З 6 15 км 6/0
[Ac trans Ci sp]
+29.6 +22.8 67 +39 +44 очень
душно
1010.8 960.9
12 11.08 З 6 15 км 6/0
[Ci sp]
+32.0 +22.0 56 +41 +49 опасность
перегрева
1009.1 959.4
15 11.08 З 6 15 км 6/0
[Ci sp]
+34.5 +20.8 45 +42 +44 опасность
перегрева
1007.5 958.0
18 11.08 З 2 15 км 6/0
[Ci sp]
+31.7 +21.0 53 +39 +39 очень
душно
1008.2 958.4 +35.0
06 12.08 Ю 4 10 км 9/0
[Ac trans Ci sp]
+26.0 +23.6 87 +35 +36 очень
душно
1009.6 959.8 +25.8
09 12.08 ЮЗ 8 10 км 9/1 900 м
[Sc Ac trans Ci sp]
+29.5 +22.8 67 +39 +40 очень
душно
1010.9 961.1
12 12.08 З 6 10 км 9/0
[Ac trans Ci sp]
+31.0 +23.2 63 +41 +46 опасность
перегрева
1009.4 959.7
15 12.08 З 4 10 км 9/0
[Cs]
+33.2 +21.8 51 +41 +46 опасность
перегрева
1006.9 957.4
18 12.08 З 4 10 км 9/0
[Cs]
+31.5 +21.6 56 +40 +40 очень
душно
1006.9 957.2 +34.0
06 13.08 З 2 15 км {гроза, дождь} 9/0
[Ac trans Ci sp]
+24.2 +21.1 83 +31 +31 очень
душно
1007.4 957.6 +21.0 8
09 13.08 З 4 15 км 9/0
[Ac trans Ci sp]
+29.2 +23.0 69 +39 +46 очень
душно
1009.5 959.8
12 13.08 З 4 15 км 6/0
[Ac trans Ci sp]
+31.8 +23.4 61 +43 +55 опасность
перегрева
1009.2 959.0
15 13.08 З 4 15 км 9/1 1000 м
[Cu med, cong Ac trans Ci sp]
+32.5 +23.3 58 +43 +46 опасность
перегрева
1005.9 956.2
18 13.08 СВ 2 10 км гроза, ливневой дождь 10/1 1200 м
[Cb cap Ac As]
+23.0 +20.8 87 +30 +30 очень
душно
1010.0 959.3 +33.0 10
06 14.08 штиль 0 10 км 9/0
[Ac As]
+23.0 +22.0 94 +31 +32 очень
душно
1008.8 959.0 +21.1 11
09 14.08 Ю 2 10 км 9/0
[Ac As]
+24.5 +22.4 88 +32 +37 очень
душно
1012.1 961.4
12 14.08 Ю 2 10 км 9/0
[Ac As Ci sp]
+29.0 +21.3 63 +37 +46 очень
душно
1010.6 960.3
15 14.08 З 2 15 км 9/0
[Ac trans Ci sp]
+30.6 +21.0 57 +38 +44 очень
душно
1008.6 958.5
18 14.08 штиль 0 15 км 9/0
[Cs]
+29.4 +21.3 62 +37 +37 очень
душно
1008.2 958.0 +31.0
06 15.08 СЗ 4 10 км 9/0
[Ac trans Ci sp]
+24.8 +22.5 87 +32 +33 очень
душно
1009.1 959.0 +24.1
09 15.08 З 6 15 км 9/0
[]
+29.6 +21.3 61 +37 +41 очень
душно
1010.1 960.2
12 15.08 З 4 15 км 9/0
[Ac trans Cs]
+33.5 +21.3 49 +41 +53 опасность
перегрева
1009.0 959.3
15 15.08 СЗ 4 15 км 9/0
[Cs]
+34.5 +20.8 45 +42 +46 опасность
перегрева
1007.0 957.5
18 15.08 З 2 10 км 9/0
[Cs]
+31.2 +22.9 61 +41 +41 опасность
перегрева
1007.1 957.3 +35.0
06 16.08 З 4 15 км 9/0
[Ac lent Cs]
+26.0 +23.2 85 +35 +35 очень
душно
1008.1 958.3 +26.0
09 16.08 З 6 15 км 9/4 1000 м
[Cu med, cong Cs]
+29.0 +24.1 75 +40 +43 очень
душно
1009.9 960.0
12 16.08 З 6 15 км 9/1 1000 м
[Cu hum Cs]
+32.0 +23.6 61 +43 +49 опасность
перегрева
1007.9 958.3
15 16.08 З 4 10 км 9/0
[Cs]
+33.8 +22.3 51 +43 +47 опасность
перегрева
1003.7 954.4

 

Местоположение метеостанции Zinder (Нигер): широта 13.78 долгота 8.98 высота над уровнем моря 453 м.

В архиве по умолчанию представлена погода в Zinder за последнюю неделю. Архивные данные за месяц целиком и за предыдущие месяцы, начиная с января 2011 года, Вы можете получить, выбрав интересующий диапазон дат из раскрывающегося списка и нажав кнопку "Ввод!".

Внимание! Время в таблицах - всемирное. Для получения местного времени необходимо прибавить поправку, которая в Zinder равна 1 ч.

Смотрите также архив погоды в соседних городах и на ближайших метеорологических станциях:

Погода в Magaria (Нигер) (89 км)
Погода в Goure (Нигер) (144 км)
Погода в Cano (Нигерия) (199 км)
Погода в Maradi (Нигер) (208 км)
Погода в Maine-Soroa (Нигер) (330 км)
Погода в Agadez (Нигер) (371 км)
Погода в Birni-Nkonni (Нигер) (403 км)
Погода в Diffa (Нигер) (413 км)
Погода в Tahoua (Нигер) (421 км)
Погода в Nguigmi (Нигер) (450 км)

Пояснения к столбцам:

Ветер - указаны скорость ветра в м/с - средняя за 10 мин, порывы в срок и между сроками (в фигурных скобках) и направление, откуда дует ветер: С - северный, СВ - северо-восточный, В - восточный, ЮВ - юго-восточный, Ю - южный, ЮЗ - юго-западный, З - западный, СЗ - северо-западный.
Видимость - горизонтальная дальность видимости в метрах или километрах. При видимости от 1 до 10 км при отсутствии осадков обычно наблюдается дымка, при ухудшении видимости до 1 км и менее - туман. В сухую погоду видимость может ухудшаться дымом, пылью или мглою.
Явления - указаны атмосферные явления, наблюдавшиеся в срок или в последний час перед сроком; фигурными скобками обозначены явления, наблюдавшиеся между сроками (за 1-3 часа до срока); квадратными скобками обозначены град или гололедные отложения с указанием их диаметра в мм.
Облачность - указаны через наклонную черту общая и нижняя облачность в баллах и высота нижней границы облаков в метрах; квадратными скобками обозначены формы облаков: Ci - перистые, Cs - перисто-слоистые, Cc - перисто-кучевые, Ac - высококучевые, As - высокослоистые, Sc - слоисто-кучевые, Ns - слоисто-дождевые, Cu - кучевые, Cb - кучево-дождевые. Подробнее классификацию облаков см. в Атласе облаков (PDF).
T - Температура воздуха - температура, измеренная на высоте 2 м над землей.
Td - Температура точки росы - температура, при понижении до которой содержащийся в воздухе водяной пар достигнет насыщения.
f - Относительная влажность воздуха - влажноcть воздуха, измеренная на высоте 2 м над землей.
Te - Эффективная температура - температура, которую ощущает одетый по сезону человек в тени. Характеристика душности погоды. При расчете учитывается влияние влажности воздуха и скорости ветра на теплоощущения человека.
Tes - Эффективная температура на солнце - температура, которую ощущает человек, с поправкой на солнечный нагрев. Характеристика знойности погоды. Зависит от высоты солнца над горизонтом, облачности и скорости ветра. Ночью, в пасмурную погоду, а также при ветре 12 м/с и более поправка равна нулю.
P - Атмосферное давление - приведенное к уровню моря атмосферное давление.
Po - Атмосферное давление - измеренное на уровне метеостанции атмосферное давление.
Tmin - Минимальная температура - минимум температуры воздуха на высоте 2 м над землей.
Tmax - Максимальная температура - максимум температуры воздуха на высоте 2 м над землей.
R - Количество осадков - Количество выпавших осадков за период времени, мм. При наведении курсора мыши на число - период времени, за который выпало указанное количество осадков.
R24 - Количество осадков - Количество выпавших осадков за 24 часа, мм.
S - Снежный покров - Высота снежного покрова, см. При наведении курсора мыши на число - состояние снежного покрова и степень покрытия местности в баллах.